Tracking 19638 objects as of 20-Apr-2019
HD Live streaming from Space Station
objects crossing your sky now

SL-18 DEB

Track SL-18 DEB now!
10-day predictions


NORAD ID: 28292
Int'l Code: 1993-014V
Perigee: 670.8 km
Apogee: 885.1 km
Inclination: 75.8 °
Period: 100.3 minutes
Semi major axis: 7148 km
RCS: 0.016 m2 (small)
Launch date: March 25, 1993
Source: Commonwealth of Independent States (former USSR) (CIS)
Launch site: PLESETSK MISSILE AND SPACE COMPLEX (PKMTR)

Note: This is SATELLITE DEBRIS
aabbcc
Your satellite tracking list
Your tracking list is empty




NASA's NSSDC Master Catalog

Two Line Element Set (TLE):
1 28292U 93014V   19109.18708278  .00000245  00000-0  78070-4 0  9998
2 28292  75.7614  41.7390 0149898  78.2830 283.5107 14.36278130843811
Source of the keplerian elements: AFSPC